User: anonymous   Login
Location: Étouvelles
(49.5207°N, 3.5808°E)
Time: 04:05:19
(UTC+00:00)
Language:

Cosmos 2315 Rocket - Orbit

View from above orbital plane
View from above orbital plane
View from above satellite
View from above satellite

Ground track
Ground track

The orbit data is extracted from the following two-line orbital elements,

1 23604U 95032B   23154.53990676 -.00000015  00000-0 -31332-4 0  9998
2 23604  82.9027 336.7551 0022975 299.0157  60.8696 13.74353213400082
Epoch (UTC): 03 June 2023 12:57:27
Eccentricity: 0.0022975
inclination: 82.9027°
perigee height: 967 km
apogee height: 1001 km
right ascension of ascending node: 336.7551°
argument of perigee: 299.0157°
revolutions per day: 13.74353213
mean anomaly at epoch: 60.8696°
orbit number at epoch: 40008

The dashed part of the orbit path shows where the satellite is in the earth's shadow,  

DLR